Location: Home
(40.5300°N, 105.0300°W)
Time: 12:39:38
(UTC-07:00)

STARLINK-2712 - Pass Details

Date: 26 October 2021
Orbit: 546 x 548 km, 53.1° (Epoch: 01 December)

Event Time Altitude Azimuth Distance (km) Brightness Sun altitude
Exits shadow 04:41:10 15° 126° (SE) 1,496 6.2 -31.4°
Maximum altitude 04:41:10 15° 126° (SE) 1,496 6.2 -31.4°
Drops below altitude 10° 04:43:36 10° 90° (E) 1,810 7.1 -30.9°
Sets 04:46:34 0° 67° (ENE) 2,708 8.3 -30.4°
